Location: Unspecified
(0.0000°N, 0.0000°E)
Time: 02:40:08
(UTC+00:00)

deb Explorer IX - Visible Passes

Search period start: 24 April 2014 00:00
Search period end: 04 May 2014 00:00
Orbit: 551 x 1233 km, 38.8° (Epoch: 23 April)

Date Brightness Start Highest point End Pass type
(mag) Time Alt. Az. Time Alt. Az. Time Alt. Az.
02 May ? 18:55:03 10° SSE 18:57:02 11° SSE 18:57:39 11° SE visible
02 May ? 20:39:38 10° SW 20:40:29 13° SSW 20:40:29 13° SSW visible
03 May ? 18:51:38 10° S 18:56:03 16° SE 18:57:26 15° SE visible
03 May ? 20:38:05 10° SW 20:40:17 20° SW 20:40:17 20° SW visible
